Location: Unspecified
(0.0000°N, 0.0000°E)
Time: 06:16:08
(UTC+00:00)

Hubble Space Telescope - Pass Details

Date: 22 November 2020
Orbit: 536 x 540 km, 28.5° (Epoch: 03 December)

Event Time Altitude Azimuth Distance (km) Brightness Sun altitude
Rises 19:53:10 0° 252° (WSW) 2,666 5.5 -29.5°
Reaches altitude 10° 19:55:31 10° 259° (WSW) 1,775 4.3 -30.1°
Enters shadow 19:57:22 24° 273° (W) 1,139 2.9 -30.5°
